CHINASAT 2E (ZX 2E) (49062 NORAD) Tracking and Keplerian Element Data

This shows tracking and keplerian element data for the satellite.

Feedback or suggestion? Click here.




ElementValue
Catalog49062
NameCHINASAT 2E (ZX 2E)
Epoch Orbit68
Epoch Day261.09819365
Epoch Year2021
RAAN269.6947
Inclination0.2371
Eccentricity7.81E-05
Argument of Perigee5.2605
Mean Anonmoly215.6551
Mean Motion1.00268139
Decay Rate-3.16E-06
L11 49062U 21071A 21261.09819365 -.00000316 00000-0 00000-0 0 9996
L22 49062 0.2371 269.6947 0000781 5.2605 215.6551 1.00268139 682

Live tracking and technical data element details for CHINASAT 2E (ZX 2E) (NORAD 49062). CHINASAT 2E (ZX 2E) can be tracked NOW for your location showing map with azimuth and elevation plus other details from your city location.

Track the satellite on the map from your city or location and see movement details for azimuth, elevation, latitude, longitude, range, height, and movement on the map or in text.







IsCatalogInMostPopularTable: catalog: 49062, numindb: 5
Update: records affected: 1



GetName: 49062 CHINASAT 2E (ZX 2E)

Hit Count: updated at: Fri, 24 Sep 2021 18:16:25 GMT